Year,Month,Day,Hour,Minute,Value (Times are PST for temperature in C)
2018,07,04,00,00,13.20
2018,07,04,00,01,13.20
2018,07,04,00,02,13.10
2018,07,04,00,03,13.10
2018,07,04,00,04,13.10
2018,07,04,00,05,13.10
2018,07,04,00,06,13.00
2018,07,04,00,07,13.00
2018,07,04,00,08,13.00
2018,07,04,00,09,13.00
2018,07,04,00,10,12.90
2018,07,04,00,11,12.90
2018,07,04,00,12,12.90
2018,07,04,00,13,12.90
2018,07,04,00,14,12.90
2018,07,04,00,15,12.90
2018,07,04,00,16,12.90
2018,07,04,00,17,12.90
2018,07,04,00,18,12.90
2018,07,04,00,19,12.90
2018,07,04,00,20,12.90
2018,07,04,00,21,12.90
2018,07,04,00,22,12.90
2018,07,04,00,23,12.80
2018,07,04,00,24,12.80
2018,07,04,00,25,12.80
2018,07,04,00,26,12.80
2018,07,04,00,27,12.80
2018,07,04,00,28,12.80
2018,07,04,00,29,12.80
2018,07,04,00,30,12.80
2018,07,04,00,31,12.80
2018,07,04,00,32,12.80
2018,07,04,00,33,12.80
2018,07,04,00,34,12.80
2018,07,04,00,35,12.80
2018,07,04,00,36,12.80
2018,07,04,00,37,12.80
2018,07,04,00,38,12.70
2018,07,04,00,39,12.70
2018,07,04,00,40,12.70
2018,07,04,00,41,12.70
2018,07,04,00,42,12.70
2018,07,04,00,43,12.60
2018,07,04,00,44,12.60
2018,07,04,00,45,12.60
2018,07,04,00,46,12.60
2018,07,04,00,47,12.50
2018,07,04,00,48,12.50
2018,07,04,00,49,12.40
2018,07,04,00,50,12.40
2018,07,04,00,51,12.40
2018,07,04,00,52,12.40
2018,07,04,00,53,12.30
2018,07,04,00,54,12.30
2018,07,04,00,55,12.30
2018,07,04,00,56,12.30
2018,07,04,00,57,12.20
2018,07,04,00,58,12.20
2018,07,04,00,59,12.20
2018,07,04,01,00,12.10
2018,07,04,01,01,12.10
2018,07,04,01,02,12.10
2018,07,04,01,03,12.10
2018,07,04,01,04,12.10
2018,07,04,01,05,12.00
2018,07,04,01,06,12.00
2018,07,04,01,07,12.00
2018,07,04,01,08,12.00
2018,07,04,01,09,12.00
2018,07,04,01,10,12.00
2018,07,04,01,11,12.00
2018,07,04,01,12,11.90
2018,07,04,01,13,11.90
2018,07,04,01,14,11.90
2018,07,04,01,15,11.90
2018,07,04,01,16,11.90
2018,07,04,01,17,11.90
2018,07,04,01,18,11.90
2018,07,04,01,19,11.80
2018,07,04,01,20,11.80
2018,07,04,01,21,11.80
2018,07,04,01,22,11.80
2018,07,04,01,23,11.80
2018,07,04,01,24,11.80
2018,07,04,01,25,11.70
2018,07,04,01,26,11.70
2018,07,04,01,27,11.70
2018,07,04,01,28,11.70
2018,07,04,01,29,11.70
2018,07,04,01,30,11.70
2018,07,04,01,31,11.70
2018,07,04,01,32,11.70
2018,07,04,01,33,11.70
2018,07,04,01,34,11.70
2018,07,04,01,35,11.60
2018,07,04,01,36,11.60
2018,07,04,01,37,11.60
2018,07,04,01,38,11.60
2018,07,04,01,39,11.60
2018,07,04,01,40,11.60
2018,07,04,01,41,11.60
2018,07,04,01,42,11.60
2018,07,04,01,43,11.60
2018,07,04,01,44,11.60
2018,07,04,01,45,11.60
2018,07,04,01,46,11.60
2018,07,04,01,47,11.60
2018,07,04,01,48,11.50
2018,07,04,01,49,11.50
2018,07,04,01,50,11.50
2018,07,04,01,51,11.50
2018,07,04,01,52,11.40
2018,07,04,01,53,11.40
2018,07,04,01,54,11.40
2018,07,04,01,55,11.40
2018,07,04,01,56,11.40
2018,07,04,01,57,11.40
2018,07,04,01,58,11.40
2018,07,04,01,59,11.40
2018,07,04,02,00,11.40
2018,07,04,02,01,11.40
2018,07,04,02,02,11.40
2018,07,04,02,03,11.40
2018,07,04,02,04,11.40
2018,07,04,02,05,11.40
2018,07,04,02,06,11.40
2018,07,04,02,07,11.40
2018,07,04,02,08,11.40
2018,07,04,02,09,11.40
2018,07,04,02,10,11.40
2018,07,04,02,11,11.40
2018,07,04,02,12,11.30
2018,07,04,02,13,11.30
2018,07,04,02,14,11.30
2018,07,04,02,15,11.30
2018,07,04,02,16,11.30
2018,07,04,02,17,11.30
2018,07,04,02,18,11.30
2018,07,04,02,19,11.20
2018,07,04,02,20,11.20
2018,07,04,02,21,11.20
2018,07,04,02,22,11.20
2018,07,04,02,23,11.20
2018,07,04,02,24,11.20
2018,07,04,02,25,11.20
2018,07,04,02,26,11.20
2018,07,04,02,27,11.10
2018,07,04,02,28,11.10
2018,07,04,02,29,11.10
2018,07,04,02,30,11.10
2018,07,04,02,31,11.10
2018,07,04,02,32,11.10
2018,07,04,02,33,11.10
2018,07,04,02,34,11.10
2018,07,04,02,35,11.00
2018,07,04,02,36,11.00
2018,07,04,02,37,11.00
2018,07,04,02,38,11.00
2018,07,04,02,39,11.00
2018,07,04,02,40,10.90
2018,07,04,02,41,10.90
2018,07,04,02,42,10.90
2018,07,04,02,43,10.90
2018,07,04,02,44,10.90
2018,07,04,02,45,10.90
2018,07,04,02,46,10.90
2018,07,04,02,47,10.90
2018,07,04,02,48,10.90
2018,07,04,02,49,10.80
2018,07,04,02,50,10.80
2018,07,04,02,51,10.80
2018,07,04,02,52,10.80
2018,07,04,02,53,10.80
2018,07,04,02,54,10.80
2018,07,04,02,55,10.80
2018,07,04,02,56,10.80
2018,07,04,02,57,10.80
2018,07,04,02,58,10.70
2018,07,04,02,59,10.70
2018,07,04,03,00,10.70
2018,07,04,03,01,10.70
2018,07,04,03,02,10.70
2018,07,04,03,03,10.70
2018,07,04,03,04,10.70
2018,07,04,03,05,10.70
2018,07,04,03,06,10.70
2018,07,04,03,07,10.70
2018,07,04,03,08,10.70
2018,07,04,03,09,10.60
2018,07,04,03,10,10.60
2018,07,04,03,11,10.60
2018,07,04,03,12,10.60
2018,07,04,03,13,10.60
2018,07,04,03,14,10.60
2018,07,04,03,15,10.60
2018,07,04,03,16,10.60
2018,07,04,03,17,10.60
2018,07,04,03,18,10.60
2018,07,04,03,19,10.60
2018,07,04,03,20,10.60
2018,07,04,03,21,10.60
2018,07,04,03,22,10.60
2018,07,04,03,23,10.60
2018,07,04,03,24,10.60
2018,07,04,03,25,10.60
2018,07,04,03,26,10.60
2018,07,04,03,27,10.60
2018,07,04,03,28,10.60
2018,07,04,03,29,10.60
2018,07,04,03,30,10.60
2018,07,04,03,31,10.60
2018,07,04,03,32,10.60
2018,07,04,03,33,10.60
2018,07,04,03,34,10.60
2018,07,04,03,35,10.50
2018,07,04,03,36,10.50
2018,07,04,03,37,10.50
2018,07,04,03,38,10.50
2018,07,04,03,39,10.50
2018,07,04,03,40,10.50
2018,07,04,03,41,10.50
2018,07,04,03,42,10.50
2018,07,04,03,43,10.40
2018,07,04,03,44,10.40
2018,07,04,03,45,10.40
2018,07,04,03,46,10.40
2018,07,04,03,47,10.40
2018,07,04,03,48,10.40
2018,07,04,03,49,10.40
2018,07,04,03,50,10.40
2018,07,04,03,51,10.40
2018,07,04,03,52,10.40
2018,07,04,03,53,10.40
2018,07,04,03,54,10.40
2018,07,04,03,55,10.40
2018,07,04,03,56,10.40
2018,07,04,03,57,10.50
2018,07,04,03,58,10.50
2018,07,04,03,59,10.50
2018,07,04,04,00,10.50
2018,07,04,04,01,10.50
2018,07,04,04,02,10.50
2018,07,04,04,03,10.50
2018,07,04,04,04,10.50
2018,07,04,04,05,10.50
2018,07,04,04,06,10.50
2018,07,04,04,07,10.50
2018,07,04,04,08,10.50
2018,07,04,04,09,10.50
2018,07,04,04,10,10.50
2018,07,04,04,11,10.50
2018,07,04,04,12,10.50
2018,07,04,04,13,10.50
2018,07,04,04,14,10.50
2018,07,04,04,15,10.50
2018,07,04,04,16,10.60
2018,07,04,04,17,10.60
2018,07,04,04,18,10.60
2018,07,04,04,19,10.60
2018,07,04,04,20,10.60
2018,07,04,04,21,10.70
2018,07,04,04,22,10.70
2018,07,04,04,23,10.70
2018,07,04,04,24,10.70
2018,07,04,04,25,10.70
2018,07,04,04,26,10.70
2018,07,04,04,27,10.70
2018,07,04,04,28,10.70
2018,07,04,04,29,10.70
2018,07,04,04,30,10.70
2018,07,04,04,31,10.70
2018,07,04,04,32,10.70
2018,07,04,04,33,10.80
2018,07,04,04,34,10.80
2018,07,04,04,35,10.80
2018,07,04,04,36,10.90
2018,07,04,04,37,11.00
2018,07,04,04,38,11.00
2018,07,04,04,39,11.10
2018,07,04,04,40,11.10
2018,07,04,04,41,11.20
2018,07,04,04,42,11.20
2018,07,04,04,43,11.30
2018,07,04,04,44,11.30
2018,07,04,04,45,11.30
2018,07,04,04,46,11.40
2018,07,04,04,47,11.40
2018,07,04,04,48,11.40
2018,07,04,04,49,11.40
2018,07,04,04,50,11.50
2018,07,04,04,51,11.50
2018,07,04,04,52,11.50
2018,07,04,04,53,11.50
2018,07,04,04,54,11.50
2018,07,04,04,55,11.50
2018,07,04,04,56,11.50
2018,07,04,04,57,11.50
2018,07,04,04,58,11.50
2018,07,04,04,59,11.50
2018,07,04,05,00,11.50
2018,07,04,05,01,11.50
2018,07,04,05,02,11.50
2018,07,04,05,03,11.50
2018,07,04,05,04,11.60
2018,07,04,05,05,11.60
2018,07,04,05,06,11.60
2018,07,04,05,07,11.60
2018,07,04,05,08,11.50
2018,07,04,05,09,11.50
2018,07,04,05,10,11.50
2018,07,04,05,11,11.50
2018,07,04,05,12,11.50
2018,07,04,05,13,11.50
2018,07,04,05,14,11.50
2018,07,04,05,15,11.50
2018,07,04,05,16,11.50
2018,07,04,05,17,11.50
2018,07,04,05,18,11.60
2018,07,04,05,19,11.60
2018,07,04,05,20,11.60
2018,07,04,05,21,11.70
2018,07,04,05,22,11.70
2018,07,04,05,23,11.70
2018,07,04,05,24,11.70
2018,07,04,05,25,11.80
2018,07,04,05,26,11.80
2018,07,04,05,27,11.80
2018,07,04,05,28,11.90
2018,07,04,05,29,11.90
2018,07,04,05,30,12.00
2018,07,04,05,31,12.10
2018,07,04,05,32,12.10
2018,07,04,05,33,12.20
2018,07,04,05,34,12.20
2018,07,04,05,35,12.20
2018,07,04,05,36,12.30
2018,07,04,05,37,12.30
2018,07,04,05,38,12.30
2018,07,04,05,39,12.40
2018,07,04,05,40,12.40
2018,07,04,05,41,12.50
2018,07,04,05,42,12.60
2018,07,04,05,43,12.70
2018,07,04,05,44,12.80
2018,07,04,05,45,12.90
2018,07,04,05,46,13.00
2018,07,04,05,47,13.10
2018,07,04,05,48,13.10
2018,07,04,05,49,13.10
2018,07,04,05,50,13.20
2018,07,04,05,51,13.20
2018,07,04,05,52,13.20
2018,07,04,05,53,13.30
2018,07,04,05,54,13.30
2018,07,04,05,55,13.30
2018,07,04,05,56,13.30
2018,07,04,05,57,13.30
2018,07,04,05,58,13.30
2018,07,04,05,59,13.20
2018,07,04,06,00,13.20
2018,07,04,06,01,13.20
2018,07,04,06,02,13.20
2018,07,04,06,03,13.20
2018,07,04,06,04,13.20
2018,07,04,06,05,13.20
2018,07,04,06,06,13.20
2018,07,04,06,07,13.20
2018,07,04,06,08,13.20
2018,07,04,06,09,13.20
2018,07,04,06,10,13.20
2018,07,04,06,11,13.20
2018,07,04,06,12,13.20
2018,07,04,06,13,13.30
2018,07,04,06,14,13.30
2018,07,04,06,15,13.30
2018,07,04,06,16,13.40
2018,07,04,06,17,13.40
2018,07,04,06,18,13.40
2018,07,04,06,19,13.40
2018,07,04,06,20,13.50
2018,07,04,06,21,13.50
2018,07,04,06,22,13.50
2018,07,04,06,23,13.60
2018,07,04,06,24,13.60
2018,07,04,06,25,13.60
2018,07,04,06,26,13.70
2018,07,04,06,27,13.70
2018,07,04,06,28,13.80
2018,07,04,06,29,13.90
2018,07,04,06,30,13.90
2018,07,04,06,31,14.00
2018,07,04,06,32,14.10
2018,07,04,06,33,14.20
2018,07,04,06,34,14.30
2018,07,04,06,35,14.40
2018,07,04,06,36,14.40
2018,07,04,06,37,14.50
2018,07,04,06,38,14.60
2018,07,04,06,39,14.60
2018,07,04,06,40,14.70
2018,07,04,06,41,14.80
2018,07,04,06,42,14.90
2018,07,04,06,43,14.90
2018,07,04,06,44,15.00
2018,07,04,06,45,15.00
2018,07,04,06,46,15.00
2018,07,04,06,47,15.00
2018,07,04,06,48,15.00
2018,07,04,06,49,15.10
2018,07,04,06,50,15.20
2018,07,04,06,51,15.30
2018,07,04,06,52,15.40
2018,07,04,06,53,15.40
2018,07,04,06,54,15.50
2018,07,04,06,55,15.60
2018,07,04,06,56,15.70
2018,07,04,06,57,15.80
2018,07,04,06,58,15.80
2018,07,04,06,59,15.90
2018,07,04,07,00,16.00
2018,07,04,07,01,16.00
2018,07,04,07,02,16.10
2018,07,04,07,03,16.10
2018,07,04,07,04,16.20
2018,07,04,07,05,16.20
2018,07,04,07,06,16.30
2018,07,04,07,07,16.30
2018,07,04,07,08,16.40
2018,07,04,07,09,16.50
2018,07,04,07,10,16.60
2018,07,04,07,11,16.70
2018,07,04,07,12,16.80
2018,07,04,07,13,16.90
2018,07,04,07,14,17.00
2018,07,04,07,15,17.10
2018,07,04,07,16,17.20
2018,07,04,07,17,17.30
2018,07,04,07,18,17.40
2018,07,04,07,19,17.50
2018,07,04,07,20,17.50
2018,07,04,07,21,17.60
2018,07,04,07,22,17.70
2018,07,04,07,23,17.70
2018,07,04,07,24,17.80
2018,07,04,07,25,17.90
2018,07,04,07,26,17.90
2018,07,04,07,27,18.00
2018,07,04,07,28,18.00
2018,07,04,07,29,18.10
2018,07,04,07,30,18.10
2018,07,04,07,31,18.10
2018,07,04,07,32,18.20
2018,07,04,07,33,18.20
2018,07,04,07,34,18.30
2018,07,04,07,35,18.30
2018,07,04,07,36,18.30
2018,07,04,07,37,18.40
2018,07,04,07,38,18.40
2018,07,04,07,39,18.50
2018,07,04,07,40,18.50
2018,07,04,07,41,18.60
2018,07,04,07,42,18.60
2018,07,04,07,43,18.70
2018,07,04,07,44,18.80
2018,07,04,07,45,18.80
2018,07,04,07,46,18.90
2018,07,04,07,47,19.00
2018,07,04,07,48,19.10
2018,07,04,07,49,19.10
2018,07,04,07,50,19.20
2018,07,04,07,51,19.30
2018,07,04,07,52,19.30
2018,07,04,07,53,19.40
2018,07,04,07,54,19.40
2018,07,04,07,55,19.50
2018,07,04,07,56,19.60
2018,07,04,07,57,19.70
2018,07,04,07,58,19.80
2018,07,04,07,59,19.90
2018,07,04,08,00,19.90
2018,07,04,08,01,20.00
2018,07,04,08,02,20.10
2018,07,04,08,03,20.10
2018,07,04,08,04,20.20
2018,07,04,08,05,20.20
2018,07,04,08,06,20.20
2018,07,04,08,07,20.30
2018,07,04,08,08,20.30
2018,07,04,08,09,20.40
2018,07,04,08,10,20.40
2018,07,04,08,11,20.50
2018,07,04,08,12,20.60
2018,07,04,08,13,20.60
2018,07,04,08,14,20.60
2018,07,04,08,15,20.70
2018,07,04,08,16,20.70
2018,07,04,08,17,20.70
2018,07,04,08,18,20.80
2018,07,04,08,19,20.80
2018,07,04,08,20,20.80
2018,07,04,08,21,20.80
2018,07,04,08,22,20.80
2018,07,04,08,23,20.80
2018,07,04,08,24,20.80
2018,07,04,08,25,20.80
2018,07,04,08,26,20.80
2018,07,04,08,27,20.70
2018,07,04,08,28,20.70
2018,07,04,08,29,20.70
2018,07,04,08,30,20.70
2018,07,04,08,31,20.70
2018,07,04,08,32,20.60
2018,07,04,08,33,20.60
2018,07,04,08,34,20.60
2018,07,04,08,35,20.70
2018,07,04,08,36,20.70
2018,07,04,08,37,20.70
2018,07,04,08,38,20.80
2018,07,04,08,39,20.80
2018,07,04,08,40,20.90
2018,07,04,08,41,20.90
2018,07,04,08,42,21.00
2018,07,04,08,43,21.00
2018,07,04,08,44,21.10
2018,07,04,08,45,21.20
2018,07,04,08,46,21.20
2018,07,04,08,47,21.30
2018,07,04,08,48,21.40
2018,07,04,08,49,21.40
2018,07,04,08,50,21.40
2018,07,04,08,51,21.50
2018,07,04,08,52,21.50
2018,07,04,08,53,21.60
2018,07,04,08,54,21.60
2018,07,04,08,55,21.70
2018,07,04,08,56,21.70
2018,07,04,08,57,21.70
2018,07,04,08,58,21.70
2018,07,04,08,59,21.70
2018,07,04,09,00,21.80
2018,07,04,09,01,21.80
2018,07,04,09,02,21.80
2018,07,04,09,03,21.80
2018,07,04,09,04,21.90
2018,07,04,09,05,21.90
2018,07,04,09,06,22.00
2018,07,04,09,07,22.00
2018,07,04,09,08,22.10
2018,07,04,09,09,22.20
2018,07,04,09,10,22.20
2018,07,04,09,11,22.30
2018,07,04,09,12,22.40
2018,07,04,09,13,22.40
2018,07,04,09,14,22.50
2018,07,04,09,15,22.50
2018,07,04,09,16,22.60
2018,07,04,09,17,22.60
2018,07,04,09,18,22.70
2018,07,04,09,19,22.70
2018,07,04,09,20,22.70
2018,07,04,09,21,22.80
2018,07,04,09,22,22.80
2018,07,04,09,23,22.70
2018,07,04,09,24,22.70
2018,07,04,09,25,22.60
2018,07,04,09,26,22.50
2018,07,04,09,27,22.50
2018,07,04,09,28,22.50
2018,07,04,09,29,22.40
2018,07,04,09,30,22.40
2018,07,04,09,31,22.40
2018,07,04,09,32,22.40
2018,07,04,09,33,22.50
2018,07,04,09,34,22.60
2018,07,04,09,35,22.70
2018,07,04,09,36,22.70
2018,07,04,09,37,22.80
2018,07,04,09,38,22.90
2018,07,04,09,39,22.90
2018,07,04,09,40,23.00
2018,07,04,09,41,23.00
2018,07,04,09,42,23.00
2018,07,04,09,43,23.10
2018,07,04,09,44,23.10
2018,07,04,09,45,23.00
2018,07,04,09,46,23.00
2018,07,04,09,47,23.00
2018,07,04,09,48,22.90
2018,07,04,09,49,23.00
2018,07,04,09,50,23.00
2018,07,04,09,51,22.90
2018,07,04,09,52,22.90
2018,07,04,09,53,22.90
2018,07,04,09,54,22.80
2018,07,04,09,55,22.80
2018,07,04,09,56,22.90
2018,07,04,09,57,22.90
2018,07,04,09,58,23.00
2018,07,04,09,59,23.00
2018,07,04,10,00,23.10
2018,07,04,10,01,23.20
2018,07,04,10,02,23.10
2018,07,04,10,03,22.90
2018,07,04,10,04,22.80
2018,07,04,10,05,22.90
2018,07,04,10,06,23.00
2018,07,04,10,07,23.00
2018,07,04,10,08,23.00
2018,07,04,10,09,23.00
2018,07,04,10,10,23.00
2018,07,04,10,11,23.00
2018,07,04,10,12,23.10
2018,07,04,10,13,23.10
2018,07,04,10,14,23.20
2018,07,04,10,15,23.20
2018,07,04,10,16,23.30
2018,07,04,10,17,23.30
2018,07,04,10,18,23.30
2018,07,04,10,19,23.20
2018,07,04,10,20,23.30
2018,07,04,10,21,23.30
2018,07,04,10,22,23.40
2018,07,04,10,23,23.40
2018,07,04,10,24,23.50
2018,07,04,10,25,23.50
2018,07,04,10,26,23.50
2018,07,04,10,27,23.40
2018,07,04,10,28,23.40
2018,07,04,10,29,23.50
2018,07,04,10,30,23.50
2018,07,04,10,31,23.50
2018,07,04,10,32,23.60
2018,07,04,10,33,23.60
2018,07,04,10,34,23.60
2018,07,04,10,35,23.60
2018,07,04,10,36,23.70
2018,07,04,10,37,23.80
2018,07,04,10,38,23.90
2018,07,04,10,39,23.90
2018,07,04,10,40,23.90
2018,07,04,10,41,24.00
2018,07,04,10,42,24.00
2018,07,04,10,43,24.10
2018,07,04,10,44,24.10
2018,07,04,10,45,24.00
2018,07,04,10,46,24.00
2018,07,04,10,47,24.00
2018,07,04,10,48,24.00
2018,07,04,10,49,24.00
2018,07,04,10,50,24.00
2018,07,04,10,51,23.90
2018,07,04,10,52,24.00
2018,07,04,10,53,24.10
2018,07,04,10,54,24.10
2018,07,04,10,55,24.20
2018,07,04,10,56,24.30
2018,07,04,10,57,24.30
2018,07,04,10,58,24.40
2018,07,04,10,59,24.40
2018,07,04,11,00,24.40
2018,07,04,11,01,24.40
2018,07,04,11,02,24.40
2018,07,04,11,03,24.40
2018,07,04,11,04,24.40
2018,07,04,11,05,24.40
2018,07,04,11,06,24.40
2018,07,04,11,07,24.40
2018,07,04,11,08,24.30
2018,07,04,11,09,24.30
2018,07,04,11,10,24.30
2018,07,04,11,11,24.30
2018,07,04,11,12,24.40
2018,07,04,11,13,24.40
2018,07,04,11,14,24.50
2018,07,04,11,15,24.60
2018,07,04,11,16,24.60
2018,07,04,11,17,24.70
2018,07,04,11,18,24.70
2018,07,04,11,19,24.80
2018,07,04,11,20,24.80
2018,07,04,11,21,24.90
2018,07,04,11,22,24.90
2018,07,04,11,23,24.90
2018,07,04,11,24,25.00
2018,07,04,11,25,24.90
2018,07,04,11,26,24.90
2018,07,04,11,27,24.90
2018,07,04,11,28,24.80
2018,07,04,11,29,24.70
2018,07,04,11,30,24.60
2018,07,04,11,31,24.50
2018,07,04,11,32,24.30
2018,07,04,11,33,24.30
2018,07,04,11,34,24.30
2018,07,04,11,35,24.30
2018,07,04,11,36,24.30
2018,07,04,11,37,24.30
2018,07,04,11,38,24.30
2018,07,04,11,39,24.30
2018,07,04,11,40,24.30
2018,07,04,11,41,24.30
2018,07,04,11,42,24.40
2018,07,04,11,43,24.40
2018,07,04,11,44,24.40
2018,07,04,11,45,24.40
2018,07,04,11,46,24.50
2018,07,04,11,47,24.50
2018,07,04,11,48,24.60
2018,07,04,11,49,24.70
2018,07,04,11,50,24.60
2018,07,04,11,51,24.50
2018,07,04,11,52,24.50
2018,07,04,11,53,24.40
2018,07,04,11,54,24.40
2018,07,04,11,55,24.30
2018,07,04,11,56,24.20
2018,07,04,11,57,24.10
2018,07,04,11,58,24.10
2018,07,04,11,59,24.10
2018,07,04,12,00,24.10
2018,07,04,12,01,24.20
2018,07,04,12,02,24.20
2018,07,04,12,03,24.20
2018,07,04,12,04,24.30
2018,07,04,12,05,24.40
2018,07,04,12,06,24.50
2018,07,04,12,07,24.60
2018,07,04,12,08,24.70
2018,07,04,12,09,24.70
2018,07,04,12,10,24.70
2018,07,04,12,11,24.80
2018,07,04,12,12,24.80
2018,07,04,12,13,24.90
2018,07,04,12,14,24.90
2018,07,04,12,15,25.00
2018,07,04,12,16,25.00
2018,07,04,12,17,25.00
2018,07,04,12,18,25.00
2018,07,04,12,19,25.00
2018,07,04,12,20,25.10
2018,07,04,12,21,25.10
2018,07,04,12,22,25.10
2018,07,04,12,23,25.20
2018,07,04,12,24,25.30
2018,07,04,12,25,25.40
2018,07,04,12,26,25.50
2018,07,04,12,27,25.50
2018,07,04,12,28,25.40
2018,07,04,12,29,25.30
2018,07,04,12,30,25.20
2018,07,04,12,31,25.10
2018,07,04,12,32,25.00
2018,07,04,12,33,25.00
2018,07,04,12,34,25.00
2018,07,04,12,35,25.10
2018,07,04,12,36,25.10
2018,07,04,12,37,25.20
2018,07,04,12,38,25.30
2018,07,04,12,39,25.50
2018,07,04,12,40,25.50
2018,07,04,12,41,25.60
2018,07,04,12,42,25.60
2018,07,04,12,43,25.60
2018,07,04,12,44,25.60
2018,07,04,12,45,25.70
2018,07,04,12,46,25.80
2018,07,04,12,47,25.90
2018,07,04,12,48,25.90
2018,07,04,12,49,25.90
2018,07,04,12,50,26.00
2018,07,04,12,51,26.10
2018,07,04,12,52,26.30
2018,07,04,12,53,26.30
2018,07,04,12,54,26.40
2018,07,04,12,55,26.40
2018,07,04,12,56,26.50
2018,07,04,12,57,26.40
2018,07,04,12,58,26.50
2018,07,04,12,59,26.60
2018,07,04,13,00,26.70
2018,07,04,13,01,26.70
2018,07,04,13,02,26.70
2018,07,04,13,03,26.70
2018,07,04,13,04,26.60
2018,07,04,13,05,26.70
2018,07,04,13,06,26.70
2018,07,04,13,07,26.70
2018,07,04,13,08,26.80
2018,07,04,13,09,26.80
2018,07,04,13,10,26.80
2018,07,04,13,11,26.80
2018,07,04,13,12,26.80
2018,07,04,13,13,26.80
2018,07,04,13,14,26.90
2018,07,04,13,15,26.90
2018,07,04,13,16,27.00
2018,07,04,13,17,27.00
2018,07,04,13,18,26.90
2018,07,04,13,19,26.90
2018,07,04,13,20,26.90
2018,07,04,13,21,26.90
2018,07,04,13,22,26.80
2018,07,04,13,23,26.70
2018,07,04,13,24,26.50
2018,07,04,13,25,26.40
2018,07,04,13,26,26.30
2018,07,04,13,27,26.30
2018,07,04,13,28,26.40
2018,07,04,13,29,26.40
2018,07,04,13,30,26.40
2018,07,04,13,31,26.40
2018,07,04,13,32,26.40
2018,07,04,13,33,26.40
2018,07,04,13,34,26.50
2018,07,04,13,35,26.50
2018,07,04,13,36,26.60
2018,07,04,13,37,26.70
2018,07,04,13,38,26.70
2018,07,04,13,39,26.70
2018,07,04,13,40,26.60
2018,07,04,13,41,26.60
2018,07,04,13,42,26.60
2018,07,04,13,43,26.70
2018,07,04,13,44,26.70
2018,07,04,13,45,26.80
2018,07,04,13,46,26.90
2018,07,04,13,47,27.00
2018,07,04,13,48,27.00
2018,07,04,13,49,27.10
2018,07,04,13,50,27.20
2018,07,04,13,51,27.20
2018,07,04,13,52,27.30
2018,07,04,13,53,27.30
2018,07,04,13,54,27.30
2018,07,04,13,55,27.20
2018,07,04,13,56,27.20
2018,07,04,13,57,27.20
2018,07,04,13,58,27.10
2018,07,04,13,59,27.10
2018,07,04,14,00,26.90
2018,07,04,14,01,26.90
2018,07,04,14,02,26.90
2018,07,04,14,03,26.90
2018,07,04,14,04,26.90
2018,07,04,14,05,27.00
2018,07,04,14,06,27.10
2018,07,04,14,07,27.10
2018,07,04,14,08,27.20
2018,07,04,14,09,27.20
2018,07,04,14,10,27.20
2018,07,04,14,11,27.10
2018,07,04,14,12,27.10
2018,07,04,14,13,27.10
2018,07,04,14,14,27.10
2018,07,04,14,15,27.10
2018,07,04,14,16,27.10
2018,07,04,14,17,27.20
2018,07,04,14,18,27.30
2018,07,04,14,19,27.40
2018,07,04,14,20,27.50
2018,07,04,14,21,27.60
2018,07,04,14,22,27.60
2018,07,04,14,23,27.50
2018,07,04,14,24,27.40
2018,07,04,14,25,27.40
2018,07,04,14,26,27.40
2018,07,04,14,27,27.50
2018,07,04,14,28,27.50
2018,07,04,14,29,27.40
2018,07,04,14,30,27.30
2018,07,04,14,31,27.30
2018,07,04,14,32,27.30
2018,07,04,14,33,27.20
2018,07,04,14,34,27.10
2018,07,04,14,35,27.20
2018,07,04,14,36,27.10
2018,07,04,14,37,27.10
2018,07,04,14,38,27.10
2018,07,04,14,39,27.10
2018,07,04,14,40,27.10
2018,07,04,14,41,27.20
2018,07,04,14,42,27.30
2018,07,04,14,43,27.30
2018,07,04,14,44,27.40
2018,07,04,14,45,27.50
2018,07,04,14,46,27.50
2018,07,04,14,47,27.50
2018,07,04,14,48,27.40
2018,07,04,14,49,27.40
2018,07,04,14,50,27.40
2018,07,04,14,51,27.40
2018,07,04,14,52,27.50
2018,07,04,14,53,27.50
2018,07,04,14,54,27.50
2018,07,04,14,55,27.50
2018,07,04,14,56,27.50
2018,07,04,14,57,27.40
2018,07,04,14,58,27.40
2018,07,04,14,59,27.40
2018,07,04,15,00,27.40
2018,07,04,15,01,27.40
2018,07,04,15,02,27.30
2018,07,04,15,03,27.20
2018,07,04,15,04,27.20
2018,07,04,15,05,27.20
2018,07,04,15,06,27.10
2018,07,04,15,07,27.10
2018,07,04,15,08,27.10
2018,07,04,15,09,27.10
2018,07,04,15,10,27.10
2018,07,04,15,11,27.10
2018,07,04,15,12,27.10
2018,07,04,15,13,27.20
2018,07,04,15,14,27.30
2018,07,04,15,15,27.30
2018,07,04,15,16,27.40
2018,07,04,15,17,27.50
2018,07,04,15,18,27.60
2018,07,04,15,19,27.70
2018,07,04,15,20,27.80
2018,07,04,15,21,27.80
2018,07,04,15,22,27.80
2018,07,04,15,23,27.80
2018,07,04,15,24,27.80
2018,07,04,15,25,27.80
2018,07,04,15,26,27.80
2018,07,04,15,27,27.90
2018,07,04,15,28,28.00
2018,07,04,15,29,28.00
2018,07,04,15,30,28.10
2018,07,04,15,31,28.20
2018,07,04,15,32,28.30
2018,07,04,15,33,28.30
2018,07,04,15,34,28.30
2018,07,04,15,35,28.30
2018,07,04,15,36,28.30
2018,07,04,15,37,28.30
2018,07,04,15,38,28.20
2018,07,04,15,39,28.10
2018,07,04,15,40,27.90
2018,07,04,15,41,27.90
2018,07,04,15,42,27.80
2018,07,04,15,43,27.80
2018,07,04,15,44,27.70
2018,07,04,15,45,27.70
2018,07,04,15,46,27.70
2018,07,04,15,47,27.70
2018,07,04,15,48,27.70
2018,07,04,15,49,27.70
2018,07,04,15,50,27.70
2018,07,04,15,51,27.70
2018,07,04,15,52,27.60
2018,07,04,15,53,27.50
2018,07,04,15,54,27.50
2018,07,04,15,55,27.40
2018,07,04,15,56,27.40
2018,07,04,15,57,27.40
2018,07,04,15,58,27.50
2018,07,04,15,59,27.50
2018,07,04,16,00,27.50
2018,07,04,16,01,27.50
2018,07,04,16,02,27.50
2018,07,04,16,03,27.50
2018,07,04,16,04,27.40
2018,07,04,16,05,27.40
2018,07,04,16,06,27.40
2018,07,04,16,07,27.40
2018,07,04,16,08,27.40
2018,07,04,16,09,27.30
2018,07,04,16,10,27.30
2018,07,04,16,11,27.30
2018,07,04,16,12,27.30
2018,07,04,16,13,27.30
2018,07,04,16,14,27.30
2018,07,04,16,15,27.30
2018,07,04,16,16,27.30
2018,07,04,16,17,27.30
2018,07,04,16,18,27.30
2018,07,04,16,19,27.30
2018,07,04,16,20,27.30
2018,07,04,16,21,27.30
2018,07,04,16,22,27.30
2018,07,04,16,23,27.30
2018,07,04,16,24,27.40
2018,07,04,16,25,27.40
2018,07,04,16,26,27.50
2018,07,04,16,27,27.50
2018,07,04,16,28,27.60
2018,07,04,16,29,27.60
2018,07,04,16,30,27.70
2018,07,04,16,31,27.60
2018,07,04,16,32,27.60
2018,07,04,16,33,27.60
2018,07,04,16,34,27.50
2018,07,04,16,35,27.50
2018,07,04,16,36,27.50
2018,07,04,16,37,27.40
2018,07,04,16,38,27.40
2018,07,04,16,39,27.40
2018,07,04,16,40,27.50
2018,07,04,16,41,27.50
2018,07,04,16,42,27.50
2018,07,04,16,43,27.60
2018,07,04,16,44,27.60
2018,07,04,16,45,27.60
2018,07,04,16,46,27.60
2018,07,04,16,47,27.60
2018,07,04,16,48,27.60
2018,07,04,16,49,27.50
2018,07,04,16,50,27.50
2018,07,04,16,51,27.40
2018,07,04,16,52,27.40
2018,07,04,16,53,27.40
2018,07,04,16,54,27.30
2018,07,04,16,55,27.30
2018,07,04,16,56,27.30
2018,07,04,16,57,27.30
2018,07,04,16,58,27.30
2018,07,04,16,59,27.30
2018,07,04,17,00,27.30
2018,07,04,17,01,27.30
2018,07,04,17,02,27.30
2018,07,04,17,03,27.30
2018,07,04,17,04,27.30
2018,07,04,17,05,27.30
2018,07,04,17,06,27.30
2018,07,04,17,07,27.20
2018,07,04,17,08,27.20
2018,07,04,17,09,27.20
2018,07,04,17,10,27.20
2018,07,04,17,11,27.20
2018,07,04,17,12,27.20
2018,07,04,17,13,27.20
2018,07,04,17,14,27.20
2018,07,04,17,15,27.20
2018,07,04,17,16,27.10
2018,07,04,17,17,27.10
2018,07,04,17,18,27.20
2018,07,04,17,19,27.20